Change the Weather History Date:

Tuesday, July 30, 2013

  Actual Average Record
Temperature  
Mean Temperature 67 °F 70 °F  
Max Temperature 76 °F 84 °F 106 °F (2006)
Min Temperature 57 °F 58 °F 38 °F (1903)
Degree Days  
Heating Degree Days 0 0  
Month to date heating degree days 23 19  
Since 1 June heating degree days 108 116  
Since 1 July heating degree days 23 19  
Cooling Degree Days 2 6  
Month to date cooling degree days 182 169  
Year to date cooling degree days 293 269  
Since 1 June cooling degree days 282 249  
Growing Degree Days 16 (Base 50)    
Moisture  
Dew Point 58 °F    
Average Humidity 75    
Maximum Humidity 100    
Minimum Humidity 49    
Precipitation  
Precipitation 0.00 in 0.08 in 0.66 in (1954)
Month to date precipitation 0.67 3.28  
Year to date precipitation 7.99 12.02  
Sea Level Pressure  
Sea Level Pressure 30.06 in    
Wind  
Wind Speed 5 mph (West)    
Max Wind Speed 12 mph    
Max Gust Speed 18 mph    
Visibility 8 miles    
Events      
T = Trace of Precipitation, MM = Missing Value Source: NWS Daily Summary

Daily Weather History Graph

Daily Weather History Graph

Search for Another Location

Airport or City:

Trip Planner

Search our weather history database for the weather conditions in past years. The results will help you decide how hot, cold, wet, or windy it might be!

Date:

Astronomy

Jul. 30, 2013 Rise Set
Actual Time 6:12 AM CDT 9:09 PM CDT
Civil Twilight 5:36 AM CDT 9:44 PM CDT
Nautical Twilight 4:50 AM CDT 10:30 PM CDT
Astronomical Twilight 3:55 AM CDT 11:24 PM CDT
Moon 12:34 AM CDT (7/30) 3:29 PM CDT (7/30)
Length of Visible Light 16h 08m
Length of Day
14h 57m
Last Quarter, 41% of the Moon is Illuminated
Jul 30
Last Quarter
Aug 6
New
Aug 14
First Quarter
Aug 20
Full
Aug 28
Last Quarter

Hourly Weather History & Observations

Time (CDT) Temp. Dew Point Humidity Pressure Visibility Wind Dir Wind Speed Gust Speed Precip Events Conditions
12:56 AM 63.0 °F 59.0 °F 87% 30.01 in 10.0 mi SSW 3.5 mph - N/A   Overcast
1:56 AM 63.0 °F 59.0 °F 87% 30.01 in 10.0 mi SW 3.5 mph - N/A   Overcast
2:46 AM 62.6 °F 59.0 °F 88% 30.02 in 10.0 mi West 5.8 mph - N/A   Overcast
2:56 AM 62.1 °F 59.0 °F 90% 30.01 in 10.0 mi West 4.6 mph - N/A   Mostly Cloudy
3:13 AM 62.6 °F 59.0 °F 88% 30.03 in 10.0 mi WNW 5.8 mph - N/A   Overcast
3:31 AM 62.6 °F 59.0 °F 88% 30.03 in 10.0 mi West 4.6 mph - N/A   Overcast
3:56 AM 62.1 °F 59.0 °F 90% 30.02 in 9.0 mi WSW 3.5 mph - N/A   Overcast
4:07 AM 62.6 °F 59.0 °F 88% 30.03 in 9.0 mi WSW 3.5 mph - N/A   Overcast
4:56 AM 61.0 °F 59.0 °F 93% 30.04 in 8.0 mi SW 3.5 mph - N/A   Mostly Cloudy
5:56 AM 57.9 °F 57.0 °F 97% 30.05 in 5.0 mi SSW 3.5 mph - N/A   Partly Cloudy
6:12 AM 57.2 °F 57.2 °F 100% 30.05 in 5.0 mi SW 3.5 mph - N/A   Mostly Cloudy
6:34 AM 57.2 °F 55.4 °F 94% 30.05 in 2.5 mi NW 3.5 mph - N/A   Scattered Clouds
6:48 AM 57.2 °F 55.4 °F 94% 30.05 in 1.8 mi Calm Calm - N/A   Clear
6:53 AM 57.2 °F 55.4 °F 94% 30.05 in 3.0 mi Calm Calm - N/A   Clear
6:56 AM 57.0 °F 55.9 °F 96% 30.05 in 3.0 mi Calm Calm - N/A   Clear
7:56 AM 63.0 °F 60.1 °F 90% 30.06 in 6.0 mi NW 5.8 mph - N/A   Clear
8:20 AM 64.4 °F 60.8 °F 88% 30.07 in 8.0 mi NW 5.8 mph - N/A   Partly Cloudy
8:56 AM 64.9 °F 61.0 °F 87% 30.07 in 10.0 mi WNW 3.5 mph - N/A   Clear
9:56 AM 68.0 °F 60.1 °F 76% 30.08 in 10.0 mi Calm Calm - N/A   Partly Cloudy
10:56 AM 69.1 °F 59.0 °F 70% 30.08 in 10.0 mi WNW 4.6 mph - N/A   Clear
11:56 AM 71.1 °F 59.0 °F 66% 30.08 in 10.0 mi Variable 4.6 mph - N/A   Clear
12:56 PM 73.0 °F 57.9 °F 59% 30.09 in 10.0 mi NW 5.8 mph - N/A   Clear
1:56 PM 73.0 °F 60.1 °F 64% 30.09 in 10.0 mi West 10.4 mph - N/A   Mostly Cloudy
2:56 PM 73.0 °F 59.0 °F 61% 30.09 in 10.0 mi NW 10.4 mph - N/A   Mostly Cloudy
3:56 PM 73.0 °F 59.0 °F 61% 30.07 in 10.0 mi NNW 6.9 mph - N/A   Partly Cloudy
4:56 PM 73.0 °F 57.9 °F 59% 30.06 in 10.0 mi NW 8.1 mph - N/A   Scattered Clouds
5:56 PM 73.9 °F 57.0 °F 55% 30.06 in 10.0 mi WNW 9.2 mph - N/A   Scattered Clouds
6:56 PM 75.0 °F 55.9 °F 51% 30.06 in 10.0 mi North 3.5 mph - N/A   Clear
7:56 PM 73.0 °F 54.0 °F 51% 30.06 in 10.0 mi WNW 5.8 mph - N/A   Clear
8:56 PM 68.0 °F 57.0 °F 68% 30.06 in 10.0 mi Calm Calm - N/A   Clear
9:56 PM 63.0 °F 57.0 °F 81% 30.08 in 10.0 mi Calm Calm - N/A   Clear
10:56 PM 61.0 °F 55.9 °F 83% 30.08 in 10.0 mi Calm Calm - N/A   Partly Cloudy
11:56 PM 63.0 °F 55.9 °F 78% 30.09 in 10.0 mi WSW 5.8 mph - N/A   Mostly Cloudy